Location: Newark
(15.4608°S, 41.1635°W)
Time: 12:23:10
(UTC+00:00)

Envisat - Visible Passes

Search period start: 21 January 2021 00:00
Search period end: 31 January 2021 00:00
Orbit: 764 x 766 km, 98.1° (Epoch: 20 January)

Date Brightness Start Highest point End Pass type
(mag) Time Alt. Az. Time Alt. Az. Time Alt. Az.
21 Jan 4.9 07:22:52 10° NE 07:27:22 33° ESE 07:31:54 10° SSE visible
22 Jan 6.2 06:48:57 10° E 06:50:51 12° ESE 06:52:43 10° SE visible
23 Jan 3.5 07:47:38 10° NNE 07:52:40 67° ESE 07:57:44 10° S visible
24 Jan 5.4 07:11:59 10° NE 07:16:02 24° ESE 07:20:06 10° SSE visible
26 Jan 4.1 07:36:25 10° NNE 07:41:17 49° ESE 07:46:12 10° S visible
27 Jan 5.9 07:01:17 10° ENE 07:04:42 18° ESE 07:08:08 10° SSE visible
28 Jan 3.0 08:01:32 10° N 08:06:37 82° W 08:11:44 10° SSW visible
29 Jan 4.7 07:25:19 10° NE 07:29:56 36° ESE 07:34:35 10° S visible
30 Jan 6.1 06:50:58 10° E 06:53:23 13° ESE 06:55:48 10° SE visible
